Friday Harbor, WA

4:47 AM PST on January 24, 2018 (GMT -0800)
Friday Harbor

Weather History for KFHR - May, 2013

Change the Weather History Date:

Tuesday, May 21, 2013

  Actual Average Record
Temperature  
Mean Temperature 49 °F -  
Max Temperature 54 °F 60 °F 75 °F (2017)
Min Temperature 44 °F 42 °F 39 °F (2001)
Degree Days  
Heating Degree Days 16    
Moisture  
Dew Point 45 °F    
Average Humidity 90    
Maximum Humidity 100    
Minimum Humidity 69    
Precipitation  
Precipitation 0.07 in - - ()
Sea Level Pressure  
Sea Level Pressure 29.84 in    
Wind  
Wind Speed 2 mph (SE)    
Max Wind Speed 7 mph    
Max Gust Speed -    
Visibility 8 miles    
Events Rain    
Averages and records for this station are not official NWS values.
T = Trace of Precipitation, MM = Missing Value Source: NWS Daily Summary

Daily Weather History Graph

Daily Weather History Graph

Search for Another Location

Airport or City:

Trip Planner

Search our weather history database for the weather conditions in past years. The results will help you decide how hot, cold, wet, or windy it might be!

Date:

Astronomy

May. 21, 2013 Rise Set
Actual Time 5:23 AM PDT 8:54 PM PDT
Civil Twilight 4:45 AM PDT 9:33 PM PDT
Nautical Twilight 3:53 AM PDT 10:25 PM PDT
Astronomical Twilight 2:44 AM PDT 11:35 PM PDT
Moon 4:58 PM PDT (5/21) 3:14 AM PDT (5/21)
Length of Visible Light 16h 47m
Length of Day
15h 30m
Waxing Gibbous, 85% of the Moon is Illuminated
May 21
Waxing Gibbous
May 24
Full
May 31
Last Quarter
Jun 8
New
Jun 16
First Quarter

Hourly Weather History & Observations

Time (PDT) Temp. Windchill Dew Point Humidity Pressure Visibility Wind Dir Wind Speed Gust Speed Precip Events Conditions
12:51 AM 46.4 °F - 44.6 °F 93% 29.90 in 6.0 mi Calm Calm - 0.02 in Rain Light Rain
12:53 AM 46.9 °F - 45.0 °F 93% 29.90 in 7.0 mi Calm Calm - 0.02 in Rain Light Rain
1:22 AM 46.4 °F 45.2 °F 44.6 °F 93% 29.91 in 8.0 mi SW 3.5 mph - 0.00 in Rain Light Rain
1:53 AM 46.9 °F - 45.0 °F 93% 29.90 in 6.0 mi Calm Calm - 0.02 in Rain Light Rain
2:40 AM 46.4 °F - 46.4 °F 100% 29.89 in 9.0 mi Calm Calm - 0.00 in Rain Light Rain
2:53 AM 46.9 °F - 46.0 °F 97% 29.87 in 5.0 mi Calm Calm - 0.01 in Rain Light Rain
3:10 AM 46.4 °F - 46.4 °F 100% 29.87 in 10.0 mi Calm Calm - 0.01 in Rain Light Rain
3:26 AM 46.4 °F - 46.4 °F 100% 29.86 in 5.0 mi Calm Calm - 0.01 in Rain Light Rain
3:40 AM 46.4 °F - 46.4 °F 100% 29.87 in 7.0 mi Calm Calm - 0.02 in Rain Light Rain
3:48 AM 46.4 °F - 46.4 °F 100% 29.87 in 8.0 mi Calm Calm - 0.02 in Rain Light Rain
3:53 AM 46.9 °F - 46.0 °F 97% 29.87 in 8.0 mi Calm Calm - 0.02 in Rain Light Rain
4:19 AM 46.4 °F - 46.4 °F 100% 29.85 in 8.0 mi Calm Calm - 0.00 in Rain Light Rain
4:53 AM 46.9 °F - 46.0 °F 97% 29.86 in 8.0 mi WSW 3.5 mph - 0.00 in   Overcast
5:46 AM 46.4 °F 42.9 °F 46.4 °F 100% 29.85 in 4.0 mi SSW 6.9 mph - 0.00 in Rain Light Rain
5:53 AM 46.0 °F 43.1 °F 45.0 °F 96% 29.85 in 5.0 mi WSW 5.8 mph - 0.00 in Rain Light Rain
6:15 AM 44.6 °F - 44.6 °F 100% 29.85 in 4.0 mi Calm Calm - 0.00 in Rain Light Rain
6:53 AM 45.0 °F - 44.1 °F 97% 29.85 in 5.0 mi Calm Calm - 0.00 in   Overcast
7:53 AM 46.0 °F - 44.1 °F 93% 29.84 in 3.0 mi Calm Calm - 0.00 in Rain Light Rain
8:14 AM 46.4 °F - 44.6 °F 93% 29.83 in 6.0 mi Calm Calm - 0.00 in Rain Light Rain
8:29 AM 46.4 °F - 44.6 °F 93% 29.83 in 7.0 mi Calm Calm - 0.00 in   Overcast
8:43 AM 46.4 °F 45.2 °F 44.6 °F 93% 29.82 in 9.0 mi SE 3.5 mph - 0.00 in   Overcast
8:53 AM 46.0 °F 43.9 °F 45.0 °F 96% 29.82 in 8.0 mi ESE 4.6 mph - 0.00 in   Overcast
9:31 AM 46.4 °F 45.2 °F 44.6 °F 93% 29.82 in 10.0 mi ESE 3.5 mph - N/A   Overcast
9:51 AM 46.4 °F 45.2 °F 44.6 °F 93% 29.82 in 10.0 mi SE 3.5 mph - N/A   Overcast
9:53 AM 46.9 °F - 45.0 °F 93% 29.82 in 10.0 mi ESE 3.5 mph - N/A   Overcast
10:01 AM 48.2 °F - 46.4 °F 93% 29.82 in 9.0 mi ESE 4.6 mph - N/A   Overcast
10:35 AM 48.2 °F - 46.4 °F 93% 29.82 in 10.0 mi ESE 4.6 mph - N/A   Overcast
10:53 AM 48.0 °F - 46.0 °F 93% 29.82 in 10.0 mi ESE 4.6 mph - N/A   Overcast
11:00 AM 48.2 °F - 46.4 °F 93% 29.82 in 10.0 mi SSE 4.6 mph - N/A   Overcast
11:37 AM 48.2 °F - 46.4 °F 93% 29.82 in 10.0 mi SE 6.9 mph - N/A   Overcast
11:44 AM 48.2 °F - 46.4 °F 93% 29.81 in 10.0 mi SE 4.6 mph - N/A   Overcast
11:53 AM 48.9 °F - 46.9 °F 93% 29.81 in 10.0 mi ESE 5.8 mph - N/A   Overcast
12:40 PM 48.2 °F - 44.6 °F 87% 29.82 in 10.0 mi SE 5.8 mph - N/A   Overcast
12:53 PM 48.9 °F - 45.0 °F 86% 29.82 in 10.0 mi SE 5.8 mph - N/A   Overcast
1:21 PM 50.0 °F - 46.4 °F 87% 29.82 in 10.0 mi SE 6.9 mph - N/A   Overcast
1:53 PM 51.1 °F - 46.0 °F 83% 29.83 in 10.0 mi SE 6.9 mph - N/A   Overcast
2:53 PM 52.0 °F - 46.0 °F 80% 29.82 in 10.0 mi ESE 5.8 mph - N/A   Overcast
3:19 PM 51.8 °F - 46.4 °F 82% 29.83 in 10.0 mi ESE 6.9 mph - N/A   Overcast
3:49 PM 51.8 °F - 46.4 °F 82% 29.82 in 10.0 mi East 4.6 mph - N/A   Mostly Cloudy
3:53 PM 52.0 °F - 46.0 °F 80% 29.82 in 10.0 mi East 4.6 mph - N/A   Mostly Cloudy
4:53 PM 53.1 °F - 44.1 °F 71% 29.81 in 10.0 mi ESE 6.9 mph - N/A   Partly Cloudy
5:45 PM 53.6 °F - 44.6 °F 72% 29.81 in 10.0 mi East 6.9 mph - N/A   Mostly Cloudy
5:53 PM 54.0 °F - 44.1 °F 69% 29.81 in 10.0 mi SE 5.8 mph - N/A   Mostly Cloudy
6:07 PM 53.6 °F - 44.6 °F 72% 29.81 in 10.0 mi ESE 5.8 mph - N/A   Partly Cloudy
6:53 PM 52.0 °F - 43.0 °F 71% 29.82 in 10.0 mi ESE 4.6 mph - N/A   Mostly Cloudy
7:53 PM 48.9 °F - 41.0 °F 74% 29.83 in 10.0 mi South 4.6 mph - N/A   Partly Cloudy
8:53 PM 46.9 °F - 42.1 °F 83% 29.84 in 10.0 mi South 3.5 mph - N/A   Scattered Clouds
9:53 PM 45.0 °F - 43.0 °F 93% 29.84 in 10.0 mi Calm Calm - N/A   Mostly Cloudy
10:53 PM 46.9 °F - 44.1 °F 90% 29.85 in 10.0 mi SW 4.6 mph - N/A   Overcast
11:53 PM 46.0 °F - 43.0 °F 89% 29.86 in 10.0 mi Calm Calm - N/A   Overcast